WIF454 ENBR-ENAL

Flight info

Callsign WIF454
Flight time 0h 36m
Altitude 19000
Route OLDAS DCT TUMIM
Aircraft DH8D/M-SDFGRY/SB1

Departure

Time 2026-04-20 16:36
Airport Bergen Airport, Flesland (ENBR)

Arrival

Time 2026-04-20 17:12
Airport Ålesund Airport (ENAL)
Time Latitude Longitude Altitude Speed Heading
2026-04-20 16:17 60.28657 5.22921 175 ft 0 kts 80°
2026-04-20 16:27 60.28656 5.22911 174 ft 2 kts 80°
2026-04-20 16:27 60.28653 5.22880 173 ft 2 kts 80°
2026-04-20 16:27 60.28651 5.22849 172 ft 2 kts 80°
2026-04-20 16:27 60.28648 5.22817 171 ft 2 kts 80°
2026-04-20 16:28 60.28645 5.22785 170 ft 2 kts 80°
2026-04-20 16:28 60.28645 5.22778 170 ft 0 kts 80°
2026-04-20 16:31 60.28646 5.22783 170 ft 1 kts 43°
2026-04-20 16:31 60.28659 5.22770 170 ft 2 kts 317°
2026-04-20 16:31 60.28669 5.22750 170 ft 1 kts 307°
2026-04-20 16:31 60.28673 5.22670 169 ft 8 kts 264°
2026-04-20 16:32 60.28665 5.22560 169 ft 6 kts 264°
2026-04-20 16:32 60.28673 5.22484 168 ft 4 kts 291°
2026-04-20 16:32 60.28682 5.22416 167 ft 5 kts 269°
2026-04-20 16:32 60.28653 5.22367 166 ft 7 kts 179°
2026-04-20 16:33 60.28597 5.22384 164 ft 6 kts 170°
2026-04-20 16:33 60.28566 5.22394 163 ft 1 kts 171°
2026-04-20 16:33 60.28565 5.22394 163 ft 0 kts 171°
2026-04-20 16:33 60.28538 5.22403 162 ft 9 kts 170°
2026-04-20 16:34 60.28458 5.22431 159 ft 13 kts 169°
2026-04-20 16:34 60.28363 5.22463 156 ft 12 kts 172°
2026-04-20 16:34 60.28283 5.22450 154 ft 11 kts 233°
2026-04-20 16:34 60.28273 5.22274 146 ft 13 kts 270°
2026-04-20 16:35 60.28287 5.22166 143 ft 3 kts 355°
2026-04-20 16:35 60.28291 5.22165 143 ft 0 kts 352°
2026-04-20 16:35 60.28320 5.22156 145 ft 15 kts 351°
2026-04-20 16:36 60.28417 5.22122 150 ft 46 kts 350°
2026-04-20 16:36 60.29078 5.21893 175 ft 132 kts 349°
2026-04-20 16:36 60.30013 5.21691 914 ft 135 kts 354°
2026-04-20 16:36 60.31081 5.21520 1379 ft 167 kts 353°
2026-04-20 16:37 60.32350 5.21155 1892 ft 195 kts 352°
2026-04-20 16:37 60.33814 5.20695 2372 ft 216 kts 351°
2026-04-20 16:37 60.35263 5.20136 3488 ft 208 kts 351°
2026-04-20 16:37 60.36703 5.19595 4467 ft 207 kts 352°
2026-04-20 16:38 60.38157 5.19065 5385 ft 209 kts 352°
2026-04-20 16:38 60.39653 5.18534 6012 ft 225 kts 352°
2026-04-20 16:38 60.41244 5.17976 6782 ft 231 kts 352°
2026-04-20 16:38 60.42866 5.17410 7556 ft 236 kts 352°
2026-04-20 16:39 60.44567 5.16820 8384 ft 240 kts 353°
2026-04-20 16:39 60.46267 5.16233 9209 ft 242 kts 353°
2026-04-20 16:39 60.48013 5.15628 9879 ft 247 kts 353°
2026-04-20 16:39 60.49770 5.15174 10529 ft 249 kts 360°
2026-04-20 16:40 60.51597 5.15192 11188 ft 251 kts
2026-04-20 16:40 60.53425 5.15266 11875 ft 254 kts
2026-04-20 16:40 60.55297 5.15343 12555 ft 258 kts
2026-04-20 16:40 60.57188 5.15418 13232 ft 261 kts
2026-04-20 16:41 60.59185 5.15494 13875 ft 264 kts
2026-04-20 16:41 60.61258 5.15570 14551 ft 268 kts
2026-04-20 16:41 60.63274 5.15644 15186 ft 272 kts
2026-04-20 16:41 60.65265 5.15715 15769 ft 275 kts
2026-04-20 16:42 60.67284 5.15787 16358 ft 278 kts
2026-04-20 16:42 60.69446 5.15863 16978 ft 281 kts
2026-04-20 16:42 60.71558 5.15938 17505 ft 284 kts
2026-04-20 16:42 60.73644 5.16011 18036 ft 286 kts
2026-04-20 16:43 60.75835 5.16088 18552 ft 289 kts
2026-04-20 16:43 60.78097 5.16168 19068 ft 291 kts
2026-04-20 16:43 60.80375 5.16249 19397 ft 299 kts
2026-04-20 16:43 60.82686 5.16332 19462 ft 314 kts
2026-04-20 16:44 60.85066 5.16417 19481 ft 327 kts
2026-04-20 16:44 60.87624 5.16508 19481 ft 336 kts
2026-04-20 16:44 60.90173 5.16597 19484 ft 342 kts
2026-04-20 16:44 60.92723 5.16686 19488 ft 346 kts
2026-04-20 16:45 60.95352 5.16779 19480 ft 348 kts
2026-04-20 16:45 60.98222 5.16882 19480 ft 349 kts
2026-04-20 16:45 61.01085 5.16984 19484 ft 350 kts
2026-04-20 16:45 61.03898 5.17086 19485 ft 350 kts
2026-04-20 16:46 61.06740 5.17432 19448 ft 350 kts 11°
2026-04-20 16:46 61.09333 5.19721 19494 ft 346 kts 28°
2026-04-20 16:46 61.11756 5.22449 19482 ft 347 kts 29°
2026-04-20 16:46 61.14261 5.25294 19476 ft 348 kts 29°
2026-04-20 16:47 61.16701 5.28069 19472 ft 349 kts 28°
2026-04-20 16:47 61.19037 5.30727 19476 ft 350 kts 28°
2026-04-20 16:47 61.21414 5.33432 19468 ft 350 kts 28°
2026-04-20 16:47 61.23841 5.36197 19482 ft 350 kts 28°
2026-04-20 16:48 61.26255 5.38951 19468 ft 350 kts 28°
2026-04-20 16:48 61.28622 5.41654 19532 ft 350 kts 28°
2026-04-20 16:48 61.30925 5.44289 19576 ft 351 kts 28°
2026-04-20 16:48 61.33267 5.46973 19718 ft 352 kts 28°
2026-04-20 16:49 61.35653 5.49710 19836 ft 352 kts 28°
2026-04-20 16:49 61.37999 5.52406 19975 ft 350 kts 28°
2026-04-20 16:49 61.40334 5.55091 20026 ft 351 kts 28°
2026-04-20 16:49 61.42721 5.57844 20084 ft 351 kts 28°
2026-04-20 16:50 61.45159 5.60660 20147 ft 350 kts 28°
2026-04-20 16:50 61.47529 5.63402 20176 ft 351 kts 28°
2026-04-20 16:50 61.49813 5.66049 20117 ft 353 kts 29°
2026-04-20 16:50 61.52111 5.68716 20055 ft 353 kts 29°
2026-04-20 16:51 61.54439 5.71433 19995 ft 353 kts 30°
2026-04-20 16:51 61.56777 5.74211 19935 ft 353 kts 30°
2026-04-20 16:51 61.59088 5.76975 19811 ft 350 kts 30°
2026-04-20 16:51 61.61365 5.79700 19647 ft 347 kts 30°
2026-04-20 16:52 61.63602 5.82380 19513 ft 344 kts 30°
2026-04-20 16:52 61.65939 5.85185 19494 ft 348 kts 30°
2026-04-20 16:52 61.68314 5.88046 19502 ft 351 kts 30°
2026-04-20 16:52 61.70586 5.90787 19439 ft 349 kts 30°
2026-04-20 16:53 61.72866 5.93407 19468 ft 344 kts 27°
2026-04-20 16:53 61.75206 5.95685 19262 ft 347 kts 23°
2026-04-20 16:53 61.77607 5.97855 18700 ft 345 kts 23°
2026-04-20 16:53 61.79928 5.99971 18342 ft 338 kts 24°
2026-04-20 16:54 61.82245 6.02114 17998 ft 332 kts 24°
2026-04-20 16:54 61.84517 6.04240 17674 ft 326 kts 24°
2026-04-20 16:54 61.86739 6.06340 17348 ft 323 kts 24°
2026-04-20 16:54 61.88914 6.08410 17035 ft 320 kts 24°
2026-04-20 16:55 61.91054 6.10459 16721 ft 317 kts 24°
2026-04-20 16:55 61.93269 6.12589 16395 ft 315 kts 24°
2026-04-20 16:55 61.95571 6.14810 16053 ft 312 kts 24°
2026-04-20 16:55 61.97778 6.16948 15727 ft 310 kts 24°
2026-04-20 16:56 61.99909 6.19018 15413 ft 308 kts 24°
2026-04-20 16:56 62.02012 6.21065 15103 ft 306 kts 24°
2026-04-20 16:56 62.04112 6.23113 14791 ft 304 kts 24°
2026-04-20 16:56 62.06197 6.25151 14484 ft 302 kts 24°
2026-04-20 16:57 62.08297 6.27206 14177 ft 301 kts 24°
2026-04-20 16:57 62.10347 6.29217 13875 ft 299 kts 25°
2026-04-20 16:57 62.12411 6.31245 13575 ft 298 kts 25°
2026-04-20 16:57 62.14438 6.33240 13286 ft 297 kts 24°
2026-04-20 16:58 62.16514 6.35286 12972 ft 295 kts 24°
2026-04-20 16:58 62.18545 6.37292 12664 ft 293 kts 24°
2026-04-20 16:58 62.20564 6.39288 12359 ft 292 kts 24°
2026-04-20 16:58 62.22563 6.41266 12065 ft 290 kts 24°
2026-04-20 16:59 62.24557 6.43241 11765 ft 284 kts 24°
2026-04-20 16:59 62.26489 6.45154 11481 ft 278 kts 24°
2026-04-20 16:59 62.28360 6.47011 11212 ft 272 kts 24°
2026-04-20 16:59 62.30173 6.48813 10956 ft 269 kts 24°
2026-04-20 17:00 62.33744 6.52375 10420 ft 263 kts 24°
2026-04-20 17:00 62.35473 6.54095 10165 ft 261 kts 24°
2026-04-20 17:00 62.37246 6.55778 9896 ft 259 kts 23°
2026-04-20 17:01 62.39074 6.57495 9634 ft 256 kts 22°
2026-04-20 17:01 62.40878 6.59192 9369 ft 255 kts 23°
2026-04-20 17:01 62.42638 6.60853 9114 ft 253 kts 22°
2026-04-20 17:01 62.44353 6.62475 8858 ft 252 kts 22°
2026-04-20 17:02 62.46000 6.64073 8618 ft 251 kts 24°
2026-04-20 17:02 62.47634 6.65838 8366 ft 251 kts 26°
2026-04-20 17:02 62.49300 6.67668 7819 ft 260 kts 26°
2026-04-20 17:02 62.50941 6.69470 7418 ft 255 kts 26°
2026-04-20 17:03 62.52535 6.71211 7118 ft 243 kts 26°
2026-04-20 17:03 62.54044 6.72860 6882 ft 231 kts 26°
2026-04-20 17:03 62.55500 6.74453 6636 ft 220 kts 26°
2026-04-20 17:03 62.56894 6.75944 6404 ft 210 kts 22°
2026-04-20 17:04 62.58287 6.76186 6193 ft 194 kts 343°
2026-04-20 17:04 62.59587 6.75036 6072 ft 198 kts 336°
2026-04-20 17:04 62.60946 6.73728 5882 ft 209 kts 336°
2026-04-20 17:04 62.62343 6.72353 5658 ft 218 kts 335°
2026-04-20 17:05 62.63772 6.70930 5410 ft 216 kts 335°
2026-04-20 17:05 62.65166 6.69515 5207 ft 202 kts 335°
2026-04-20 17:05 62.66456 6.68177 4971 ft 195 kts 331°
2026-04-20 17:05 62.67323 6.65918 4723 ft 190 kts 285°
2026-04-20 17:06 62.67155 6.63079 4547 ft 183 kts 250°
2026-04-20 17:06 62.66584 6.60511 4345 ft 180 kts 246°
2026-04-20 17:06 62.66072 6.57926 4156 ft 181 kts 250°
2026-04-20 17:06 62.65566 6.55314 3984 ft 181 kts 249°
2026-04-20 17:07 62.65017 6.52688 3809 ft 181 kts 248°
2026-04-20 17:07 62.64439 6.49954 3631 ft 181 kts 248°
2026-04-20 17:07 62.63886 6.47358 3458 ft 180 kts 248°
2026-04-20 17:07 62.63153 6.43934 3230 ft 179 kts 248°
2026-04-20 17:08 62.62790 6.42244 3120 ft 178 kts 248°
2026-04-20 17:08 62.62246 6.39733 3015 ft 162 kts 247°
2026-04-20 17:08 62.61766 6.37542 2849 ft 153 kts 247°
2026-04-20 17:08 62.61304 6.35458 2597 ft 145 kts 248°
2026-04-20 17:09 62.60853 6.33456 2323 ft 130 kts 247°
2026-04-20 17:09 62.60437 6.31696 1968 ft 127 kts 244°
2026-04-20 17:09 62.60108 6.29911 1589 ft 119 kts 255°
2026-04-20 17:09 62.59821 6.28255 1476 ft 112 kts 250°
2026-04-20 17:10 62.59483 6.26638 1460 ft 119 kts 249°
2026-04-20 17:10 62.59099 6.24900 1333 ft 124 kts 247°
2026-04-20 17:10 62.58703 6.23147 1154 ft 125 kts 247°
2026-04-20 17:10 62.58305 6.21391 956 ft 120 kts 247°
2026-04-20 17:11 62.57941 6.19767 742 ft 111 kts 246°
2026-04-20 17:11 62.57582 6.18213 517 ft 109 kts 249°
2026-04-20 17:11 62.57236 6.16629 349 ft 109 kts 248°
2026-04-20 17:11 62.56890 6.15047 244 ft 111 kts 249°
2026-04-20 17:12 62.56552 6.13415 144 ft 112 kts 251°
2026-04-20 17:12 62.56212 6.11841 63 ft 102 kts 247°
2026-04-20 17:12 62.55967 6.10698 69 ft 27 kts 246°
2026-04-20 17:12 62.55940 6.10658 69 ft 6 kts 114°
2026-04-20 17:13 62.55933 6.10775 69 ft 7 kts 102°
2026-04-20 17:13 62.55917 6.10912 70 ft 9 kts 106°
2026-04-20 17:13 62.55896 6.11062 71 ft 9 kts 102°
2026-04-20 17:13 62.55912 6.11205 72 ft 4 kts 59°
2026-04-20 17:14 62.55919 6.11251 72 ft 4 kts 101°
2026-04-20 17:14 62.55883 6.11304 72 ft 8 kts 155°
2026-04-20 17:14 62.55871 6.11316 73 ft 0 kts 155°